Location: Newark
(48.6461°N, 4.3644°W)
Time: 03:33:17
(UTC+00:00)

Transit 4A - Pass Details

Date: 31 January 2020
Orbit: 872 x 973 km, 66.8° (Epoch: 17 February)

Event Time Altitude Azimuth Distance (km) Brightness Sun altitude
Rises 12:24:39 0° 325° (NW) 3,477 10.4 23.9°
Reaches altitude 10° 12:27:28 10° 336° (NNW) 2,532 9.7 23.9°
Maximum altitude 12:32:34 30° 37° (NE) 1,518 8.8 23.9°
Drops below altitude 10° 12:37:40 10° 98° (E) 2,533 10.3 23.9°
Sets 12:40:28 0° 109° (ESE) 3,478 11.1 23.9°
